User: anonymous   Login
Location: Newark
(41.0400°S, 62.7845°W)
Time: 08:17:46
(UTC+00:00)
Language:

Tiros 1 - Orbit

View from above orbital plane
View from above orbital plane
View from above satellite
View from above satellite

Ground track
Ground track

The orbit data is extracted from the following two-line orbital elements,

1 00029U 60002B   21336.74068547  .00000016  00000-0  33250-4 0  9999
2 00029  48.3804 311.6565 0024171 352.7308   7.3251 14.74484547297239
Epoch (UTC): 02 December 2021 17:46:35
Eccentricity: 0.0024171
inclination: 48.3804°
perigee height: 630 km
apogee height: 664 km
right ascension of ascending node: 311.6565°
argument of perigee: 352.7308°
revolutions per day: 14.74484547
mean anomaly at epoch: 7.3251°
orbit number at epoch: 29723

The dashed part of the orbit path shows where the satellite is in the earth's shadow,  

DLR